Regional Weather Roundup
Issued by NWS

Home | Current Version | Previous Version | Text Only | Print | Product List | Glossary Off
Versions: 1 2 3 4 5 6 7 8 9 10 11 12 13 14 15 16 17 18 19 20 21 22 23 24 25 26 27 28 29 30 31 32 33 34 35 36 37 38 39 40 41 42 43 44 45 46 47 48 49 50

000
ASUS43 KBIS 290110
RWRND

NORTH DAKOTA REGIONAL WEATHER ROUNDUP
NATIONAL WEATHER SERVICE BISMARCK ND
800 PM CDT SUN AUG 28 2016

NOTE: "FAIR" INDICATES FEW OR NO CLOUDS BELOW 12,000 FEET WITH NO
SIGNIFICANT WEATHER AND/OR OBSTRUCTIONS TO VISIBILITY.


NDZ001>003-009>011-017-290200-
NORTHWEST NORTH DAKOTA

CITY           SKY/WX    TMP DP  RH WIND       PRES   REMARKS
WILLISTON      CLEAR     81  49  32 N13       30.02R
MINOT          CLEAR     80  57  45 NW12      29.93R
MINOT AFB      CLEAR     79  54  42 NW12      29.92R
$$

NDZ018>021-031>035-040>046-290200-
SOUTHWEST NORTH DAKOTA

CITY           SKY/WX    TMP DP  RH WIND       PRES   REMARKS
BISMARCK       CLEAR     81  63  54 SE6       29.91R
DICKINSON      CLOUDY    82  41  23 N8        29.98R
GARRISON         N/A     81  56  42 NW10G24   29.93R
HETTINGER ARPT CLEAR     84  52  33 NW5       29.98R
$$

NDZ004>008-012>016-024-026-027-054-290200-
NORTHEAST NORTH DAKOTA

CITY           SKY/WX    TMP DP  RH WIND       PRES   REMARKS
GRAND FORKS    PTCLDY    80  69  69 SE9       29.90F
GRND FRKS AFB  CLEAR     79  71  77 SE6       29.91F
DEVILS LAKE    CLEAR     77  71  82 SE6       29.93S
$$

NDZ022-023-025-028>030-036>039-047>053-290200-
SOUTHEAST NORTH DAKOTA

CITY           SKY/WX    TMP DP  RH WIND       PRES   REMARKS
FARGO          CLOUDY    85  73  67 S15G23    29.91S HX  91
JAMESTOWN      CLEAR     78  73  84 SE5       29.91S
$$





USA.gov is the U.S. government's official web portal to all federal, state and local government web resources and services.